User: anonymous   Login
Location: Kitchener
(43.2612°N, 80.5078°W)
Time: 18:30:40
(UTC+01:00)
Language:

Iridium 57 - Orbit

View from above orbital plane
View from above orbital plane
View from above satellite
View from above satellite

Ground track
Ground track

The orbit data is extracted from the following two-line orbital elements,

1 25273U 98019B   17052.27396243  .00000072  00000-0  18712-4 0  9999
2 25273  86.4004 335.7810 0002251  89.3399 270.8055 14.34257017989457
Epoch (UTC): 21 February 2017 06:34:30
Eccentricity: 0.0002251
inclination: 86.4004°
perigee height: 776 km
apogee height: 779 km
right ascension of ascending node: 335.7810°
argument of perigee: 89.3399°
revolutions per day: 14.34257017
mean anomaly at epoch: 270.8055°
orbit number at epoch: 98945

The dashed part of the orbit path shows where the satellite is in the earth's shadow,  

DLR